DW0427 Weather Reports


Display with metric or nautical units.
time (UTC)temp
F
wind
direction
speed
MPH
gust
MPH
rain 1hr
in
rain 24hr
in
rain mn
in
humidity
%
barometer
mb
20260509024408 45 46 4.0 12.0 0.00 0.00 0.00 81 1020.4
20260509024008 45 45 5.0 10.0 0.00 0.00 0.00 81 1020.4
20260509023808 45 46 5.0 10.0 0.00 0.00 0.00 81 1020.4
20260509023608 45 45 5.0 10.0 0.00 0.00 0.00 81 1020.5
20260509023407 45 46 5.0 10.0 0.00 0.00 0.00 81 1020.5
20260509023207 45 45 5.0 10.0 0.00 0.00 0.00 81 1020.5
20260509023008 45 46 5.0 10.0 0.00 0.00 0.00 82 1020.5
20260509022808 46 46 4.0 10.0 0.00 0.00 0.00 82 1020.5
20260509022607 45 45 4.0 10.0 0.00 0.00 0.00 82 1020.5
20260509022408 45 45 4.0 10.0 0.00 0.00 0.00 82 1020.5
20260509022207 45 45 5.0 9.0 0.00 0.00 0.00 82 1020.4
20260509022007 46 45 5.0 9.0 0.00 0.00 0.00 82 1020.3
20260509021808 46 46 5.0 11.0 0.00 0.00 0.00 82 1020.4
20260509021608 46 46 5.0 12.0 0.00 0.00 0.00 83 1020.5
20260509021408 46 46 5.0 12.0 0.00 0.00 0.00 83 1020.3
20260509021207 46 45 4.0 12.0 0.00 0.00 0.00 83 1020.4
20260509020807 46 46 4.0 12.0 0.00 0.00 0.00 83 1020.3
20260509020607 45 46 3.0 8.0 0.00 0.00 0.00 83 1020.3
20260509020407 45 46 3.0 8.0 0.00 0.00 0.00 83 1020.3
20260509020207 45 46 3.0 8.0 0.00 0.00 0.00 83 1020.3
20260509020007 45 45 3.0 7.0 0.00 0.00 0.00 83 1020.2
20260509015808 45 45 3.0 7.0 0.00 0.00 0.00 83 1020.2
20260509015608 45 46 3.0 7.0 0.00 0.00 0.00 83 1020.2
20260509015208 45 45 3.0 6.0 0.00 0.00 0.00 82 1020.3
20260509015008 45 45 3.0 6.0 0.00 0.00 0.00 82 1020.2
20260509014808 45 45 3.0 6.0 0.00 0.00 0.00 82 1020.2
20260509014608 45 45 3.0 7.0 0.00 0.00 0.00 82 1020.2
20260509014008 45 45 2.0 8.0 0.00 0.00 0.00 81 1020.2
20260509013808 46 45 2.0 8.0 0.00 0.00 0.00 81 1020.1
20260509013408 46 45 2.0 4.0 0.00 0.00 0.00 81 1020.2
20260509013208 46 45 2.0 5.0 0.00 0.00 0.00 80 1020.2
20260509013007 46 45 3.0 5.0 0.00 0.00 0.00 80 1020.1
20260509012807 46 45 3.0 5.0 0.00 0.00 0.00 80 1020.1
20260509012607 46 45 3.0 5.0 0.00 0.00 0.00 80 1020.1
20260509012407 46 46 3.0 6.0 0.00 0.00 0.00 79 1020.1
20260509012207 46 46 4.0 7.0 0.00 0.00 0.00 79 1020.1
20260509012008 46 46 4.0 7.0 0.00 0.00 0.00 79 1020.0
20260509011807 46 46 4.0 7.0 0.00 0.00 0.00 78 1020.0
20260509011607 46 46 4.0 7.0 0.00 0.00 0.00 78 1020.0
20260509011207 46 45 5.0 8.0 0.00 0.00 0.00 78 1020.0
20260509011007 46 46 5.0 8.0 0.00 0.00 0.00 78 1020.0
20260509010807 46 45 5.0 9.0 0.00 0.00 0.00 78 1020.0
20260509010607 46 46 5.0 10.0 0.00 0.00 0.00 78 1020.0
20260509010407 46 46 5.0 10.0 0.00 0.00 0.00 78 1019.9
20260509010207 46 46 5.0 10.0 0.00 0.00 0.00 78 1020.0
20260509010008 46 46 5.0 10.0 0.00 0.00 0.00 78 1020.0
20260509005807 46 46 5.0 10.0 0.00 0.00 0.00 78 1019.9
20260509005607 46 45 5.0 9.0 0.00 0.00 0.00 78 1019.9
20260509005407 46 45 5.0 9.0 0.00 0.00 0.00 77 1019.9
20260509005008 46 45 4.0 8.0 0.00 0.00 0.00 78 1019.9
20260509004808 46 46 4.0 8.0 0.00 0.00 0.00 77 1020.0
20260509004608 46 45 5.0 8.0 0.00 0.00 0.00 77 1019.8
20260509004208 47 46 5.0 8.0 0.00 0.00 0.00 77 1019.8
20260509004008 47 45 5.0 9.0 0.00 0.00 0.00 77 1019.8
20260509003808 47 46 5.0 9.0 0.00 0.00 0.00 77 1019.8
20260509003408 47 45 5.0 10.0 0.00 0.00 0.00 77 1019.9
20260509002607 47 45 5.0 9.0 0.00 0.00 0.00 77 1019.9
20260509002408 47 45 5.0 9.0 0.00 0.00 0.00 77 1019.8
20260509002008 47 45 5.0 12.0 0.00 0.00 0.00 77 1019.9
20260509001808 47 45 5.0 12.0 0.00 0.00 0.00 77 1019.9
20260509001007 47 46 6.0 10.0 0.00 0.00 0.00 77 1019.8
20260509000808 47 46 6.0 10.0 0.00 0.00 0.00 77 1019.8
20260509000410 47 45 6.0 10.0 0.00 0.00 0.00 77 1019.8
20260509000208 47 46 6.0 10.0 0.00 0.00 0.00 77 1019.9
20260509000007 48 46 6.0 10.0 0.00 0.00 0.00 77 1019.8
20260508235407 48 45 5.0 9.0 0.00 0.00 0.00 77 1019.6
20260508235207 47 45 5.0 9.0 0.00 0.00 0.00 77 1019.6
20260508235008 47 45 5.0 8.0 0.00 0.00 0.00 77 1019.6
20260508234607 48 45 6.0 9.0 0.00 0.00 0.00 77 1019.6
20260508234407 48 46 6.0 9.0 0.00 0.00 0.00 77 1019.6
20260508234008 48 45 6.0 12.0 0.00 0.00 0.00 77 1019.6
20260508233808 48 45 5.0 12.0 0.00 0.00 0.00 77 1019.6
20260508233608 48 45 5.0 12.0 0.00 0.00 0.00 77 1019.5
20260508233407 48 46 5.0 12.0 0.00 0.00 0.00 78 1019.5
20260508233208 48 46 5.0 11.0 0.00 0.00 0.00 78 1019.5
20260508233008 48 46 5.0 9.0 0.00 0.00 0.00 78 1019.5
20260508232808 47 45 5.0 9.0 0.00 0.00 0.00 78 1019.5
20260508232207 48 45 5.0 7.0 0.00 0.00 0.00 78 1019.6
20260508232007 48 46 4.0 7.0 0.00 0.00 0.00 78 1019.5
20260508231807 48 45 4.0 7.0 0.00 0.00 0.00 78 1019.5
20260508231607 48 46 4.0 7.0 0.00 0.00 0.00 78 1019.6
20260508231407 48 45 4.0 8.0 0.00 0.00 0.00 78 1019.5
20260508231207 48 45 4.0 8.0 0.00 0.00 0.00 78 1019.6
20260508230808 48 46 4.0 8.0 0.00 0.00 0.00 79 1019.5
20260508230407 48 46 4.0 6.0 0.00 0.00 0.00 79 1019.5
20260508230207 48 45 4.0 9.0 0.00 0.00 0.00 79 1019.5
20260508230007 48 46 5.0 9.0 0.00 0.00 0.00 78 1019.5
20260508225608 48 46 5.0 11.0 0.00 0.00 0.00 78 1019.5
20260508225408 48 46 5.0 11.0 0.00 0.00 0.00 78 1019.5
20260508224808 49 46 5.0 11.0 0.00 0.00 0.00 78 1019.5
20260508224408 49 46 5.0 10.0 0.00 0.00 0.00 79 1019.4
20260508224207 49 46 5.0 9.0 0.00 0.00 0.00 79 1019.4
20260508224008 49 45 5.0 9.0 0.00 0.00 0.00 79 1019.4
20260508223808 49 46 5.0 9.0 0.00 0.00 0.00 79 1019.4
20260508223608 49 46 5.0 9.0 0.00 0.00 0.00 79 1019.5
20260508223407 49 45 5.0 12.0 0.00 0.00 0.00 80 1019.4
20260508223007 49 45 5.0 12.0 0.00 0.00 0.00 80 1019.4
20260508222808 49 45 5.0 12.0 0.00 0.00 0.00 80 1019.3
20260508222608 49 46 5.0 12.0 0.00 0.00 0.00 80 1019.4
20260508222408 49 45 5.0 12.0 0.00 0.00 0.00 80 1019.4
20260508222007 49 46 6.0 9.0 0.00 0.00 0.00 80 1019.3
20260508221807 50 46 6.0 12.0 0.00 0.00 0.00 80 1019.3
20260508221608 50 46 6.0 12.0 0.00 0.00 0.00 80 1019.2
20260508221407 50 45 6.0 12.0 0.00 0.00 0.00 80 1019.2
20260508221209 50 46 6.0 12.0 0.00 0.00 0.00 80 1019.2
20260508221007 50 45 5.0 12.0 0.00 0.00 0.00 80 1019.2
20260508220808 50 45 5.0 12.0 0.00 0.00 0.00 80 1019.1
20260508220608 50 45 5.0 12.0 0.00 0.00 0.00 80 1019.2
20260508220408 50 46 5.0 10.0 0.00 0.00 0.00 80 1019.1
20260508220208 50 45 5.0 10.0 0.00 0.00 0.00 80 1019.2
20260508220007 50 46 5.0 9.0 0.00 0.00 0.00 80 1019.2
20260508215607 51 46 6.0 10.0 0.00 0.00 0.00 80 1019.2
20260508215407 51 45 6.0 10.0 0.00 0.00 0.00 80 1019.3
20260508215208 51 45 6.0 10.0 0.00 0.00 0.00 80 1019.3
20260508215007 51 46 5.0 10.0 0.00 0.00 0.00 80 1019.2
20260508214808 51 46 5.0 10.0 0.00 0.00 0.00 80 1019.3
20260508214408 51 46 4.0 10.0 0.00 0.00 0.00 80 1019.3
20260508214207 51 46 4.0 10.0 0.00 0.00 0.00 80 1019.2
20260508214008 51 45 4.0 8.0 0.00 0.00 0.00 80 1019.3
20260508213808 51 45 4.0 7.0 0.00 0.00 0.00 80 1019.3
20260508213608 51 45 4.0 7.0 0.00 0.00 0.00 79 1019.2
20260508213407 51 46 4.0 8.0 0.00 0.00 0.00 79 1019.2
20260508213207 51 45 4.0 9.0 0.00 0.00 0.00 80 1019.1
20260508213007 51 46 4.0 9.0 0.00 0.00 0.00 80 1019.1
20260508212807 51 46 4.0 9.0 0.00 0.00 0.00 79 1019.0
20260508212207 51 45 5.0 7.0 0.00 0.00 0.00 79 1019.0
20260508211607 51 46 5.0 8.0 0.00 0.00 0.00 79 1019.0
20260508211407 52 46 4.0 8.0 0.00 0.00 0.00 79 1019.0
20260508211207 52 46 4.0 8.0 0.00 0.00 0.00 79 1018.9
20260508210807 52 45 4.0 8.0 0.00 0.00 0.00 79 1018.9
20260508210607 52 46 4.0 6.0 0.00 0.00 0.00 79 1019.0
20260508210407 52 46 4.0 7.0 0.00 0.00 0.00 79 1018.9
20260508210208 52 46 4.0 7.0 0.00 0.00 0.00 79 1018.9
20260508205808 52 45 4.0 7.0 0.00 0.00 0.00 79 1018.8
20260508205408 52 46 4.0 7.0 0.00 0.00 0.00 79 1018.7
20260508205208 52 46 4.0 7.0 0.00 0.00 0.00 79 1018.7
20260508205007 52 46 4.0 7.0 0.00 0.00 0.00 79 1018.7
20260508204807 52 46 4.0 7.0 0.00 0.00 0.00 79 1018.6
20260508204607 52 46 4.0 7.0 0.00 0.00 0.00 79 1018.6
20260508204407 52 46 4.0 7.0 0.00 0.00 0.00 79 1018.5
20260508204207 52 46 5.0 8.0 0.00 0.00 0.00 79 1018.5
20260508204007 52 46 5.0 8.0 0.00 0.00 0.00 79 1018.5
20260508203808 52 46 5.0 8.0 0.00 0.00 0.00 79 1018.5
20260508203608 52 45 5.0 8.0 0.00 0.00 0.00 79 1018.5
20260508203407 52 46 6.0 10.0 0.00 0.00 0.00 79 1018.5
20260508203207 52 46 6.0 10.0 0.00 0.00 0.00 79 1018.4
20260508203008 52 45 6.0 10.0 0.00 0.00 0.00 79 1018.3
20260508202808 52 46 6.0 10.0 0.00 0.00 0.00 79 1018.3
20260508202408 52 46 6.0 9.0 0.00 0.00 0.00 79 1018.2
20260508202207 52 46 6.0 9.0 0.00 0.00 0.00 79 1018.1
20260508202007 52 45 6.0 9.0 0.00 0.00 0.00 80 1018.2
20260508201808 52 46 6.0 9.0 0.00 0.00 0.00 79 1018.1
20260508201607 52 45 6.0 9.0 0.00 0.00 0.00 80 1018.2
20260508201408 52 46 6.0 9.0 0.00 0.00 0.00 80 1018.1
20260508201207 52 46 5.0 9.0 0.00 0.00 0.00 80 1018.0
20260508200807 52 45 5.0 9.0 0.00 0.00 0.00 79 1017.9
20260508200608 52 45 5.0 9.0 0.00 0.00 0.00 79 1017.9
20260508200407 52 45 5.0 9.0 0.00 0.00 0.00 79 1017.8
20260508200208 52 46 5.0 10.0 0.00 0.00 0.00 79 1017.7
20260508200007 52 46 4.0 10.0 0.00 0.00 0.00 79 1017.7
20260508195807 52 46 4.0 10.0 0.00 0.00 0.00 79 1017.7
20260508195608 52 45 4.0 10.0 0.00 0.00 0.00 79 1017.6
20260508195408 52 46 4.0 10.0 0.00 0.00 0.00 79 1017.6
20260508195007 52 46 4.0 7.0 0.00 0.00 0.00 79 1017.5
20260508194807 52 46 4.0 7.0 0.00 0.00 0.00 79 1017.5
20260508194607 52 46 4.0 7.0 0.00 0.00 0.00 79 1017.6
20260508194408 52 45 4.0 7.0 0.00 0.00 0.00 79 1017.6